Regional Weather Roundup
Issued by NWS Boston, MA

Home | Current Version | Previous Version | Text Only | Print | Product List | Glossary On
Versions: 1 2 3 4 5 6 7 8 9 10 11 12 13 14 15 16 17 18 19 20 21 22 23 24 25 26 27 28 29 30 31 32 33 34 35 36 37 38 39 40 41 42 43 44 45 46 47 48 49 50
000
ASUS41 KBOX 250910
RWRBOX

REGIONAL WEATHER ROUNDUP
NATIONAL WEATHER SERVICE TAUNTON MA
500 AM EDT WED MAY 25 2016

NOTE:  "FAIR" INDICATES FEW OR NO CLOUDS BELOW 12,000 FEET WITH NO
SIGNIFICANT WEATHER AND/OR OBSTRUCTIONS TO VISIBILITY.  THE FOLLOWING
OBSERVATION LOCATIONS DO NOT REPORT PRESENT WEATHER...PROVINCETOWN...
SMITHFIELD...BLOCK ISLAND...KEENE...AND OXFORD.

MAZALL-251000-
EASTERN MASSACHUSETTS

CITY           SKY/WX    TMP DP  RH WIND       PRES   REMARKS
BOSTON         CLOUDY    54  52  93 CALM      30.00S
BEVERLY        FOG       52  50  93 SW5       29.99R VSB 1
LAWRENCE       CLOUDY    55  53  93 SW5       30.00S FOG
BEDFORD        CLOUDY    55  54  96 SW3       29.99R
BLUE HILL        N/A     51  51 100 W6        29.98S
NORWOOD        CLOUDY    54  53  97 SW5       29.99S FOG
MARSHFIELD     CLOUDY    52  52 100 CALM      30.00R FOG
PLYMOUTH       CLOUDY    52  52 100 W3        30.01R FOG
TAUNTON        CLOUDY    56  52  86 W3        30.01R FOG
NEW BEDFORD    CLOUDY    54  53  97 W5        30.00R
$$

MAZALL-251000-
CAPE COD AND THE ISLANDS

CITY           SKY/WX    TMP DP  RH WIND       PRES   REMARKS
FALMOUTH       CLOUDY    52  52 100 W7        30.00R
HYANNIS        CLOUDY    52  51  97 NW6       29.98R FOG
CHATHAM        CLOUDY    52  52 100 VRB3      29.99R
PROVINCETOWN   LGT RAIN  50  50 100 NW7       30.00R VSB 3/4
NANTUCKET      CLOUDY    54  51  90 NW7       29.99R
MARTHAS VNYRD  CLOUDY    54  52  93 W6        30.01R
$$

MAZALL-251000-
CENTRAL AND WESTERN MASSACHUSETTS

CITY           SKY/WX    TMP DP  RH WIND       PRES   REMARKS
WORCESTER      FOG       52  51  97 W9        29.99F VSB 1
FITCHBURG      FOG       55  54  96 CALM      30.00R VSB 1
ORANGE         FOG       53  53 100 CALM      29.99S VSB 1/4
SPRINGFIELD    FOG       54  54 100 SE1       29.98S VSB 1/4
WESTFIELD      FOG       51  50  96 CALM      29.99S VSB 1/2
NORTH ADAMS    CLOUDY    54  53  97 CALM      30.01R FOG
PITTSFIELD     FOG       49  48  97 CALM      30.00R VSB 1/4
$$

RIZALL-251000-
RHODE ISLAND

CITY           SKY/WX    TMP DP  RH WIND       PRES   REMARKS
PROVIDENCE     CLOUDY    56  54  93 W3        30.01R
NEWPORT        CLOUDY    55  53  93 CALM      30.00S
BLOCK ISLAND   FOG       55  54  96 W7        30.02S VSB 1/4
SMITHFIELD       N/A    N/A N/A N/A MISG        N/A
WESTERLY       FOG       55  52  89 CALM      30.02R VSB 1/4
$$

CTZALL-251000-
CONNECTICUT

CITY           SKY/WX    TMP DP  RH WIND       PRES   REMARKS
BRADLEY INTL   FOG       53  52  96 SW3       29.99R VSB 1/4
HARTFORD       PTCLDY    55  53  93 CALM      30.00S
BRIDGEPORT     FOG       56  54  93 CALM      30.01R VSB 1/4
DANBURY        CLEAR     50  48  93 SW5       30.02S
GROTON         FOG       54  54 100 CALM      30.01S VSB 1/4
NEW HAVEN      FOG       51  50  96 CALM      30.01S VSB 3/4
CHESTER        FAIR      57  57 100 CALM      30.01S
MERIDEN        FOG       52  51  97 CALM      30.01S VSB 1/4
WILLIMANTIC    FOG       53  51  93 CALM      30.01S VSB 1/4
OXFORD           N/A     54  50  87 CALM      30.04R VSB 1/2
$$

MEZ002-015-021-024-NHZ003-005-008-011-012-014-VTZ005-008-251000-
NORTHERN NEW ENGLAND

CITY           SKY/WX    TMP DP  RH WIND       PRES   REMARKS
PORTLAND ME    CLOUDY    52  51  97 S3        29.97S FOG
BANGOR ME      CLOUDY    56  53  90 SE5       29.94F FOG
CONCORD NH     FOG       55  54  96 S3        29.97S VSB 1/2
MANCHESTER NH  CLOUDY    57  54  89 SW5       29.97R FOG
NASHUA NH      CLOUDY    56  56 100 CALM      29.99R
PORTSMOUTH NH  FOG       52  51  98 S3        29.96F VSB 1/8
JAFFREY NH     MOCLDY    50  50 100 S5        29.99R FOG
KEENE NH       CLOUDY    52  52 100 CALM      29.99S VSB 1/2
BURLINGTON VT  FAIR      58  51  78 S5        29.93R
MT. WASHINGTON PTCLDY    45  43  93 NW35        N/A
$$

NYZ052-076-251000-
EASTERN NEW YORK

CITY           SKY/WX    TMP DP  RH WIND       PRES   REMARKS
ALBANY         PTCLDY    53  52  96 S5        30.00R FOG
NEW YORK CITY  CLEAR     63  56  78 CALM      30.02R
$$

ANZALL-251000-
MARINE OBSERVATIONS

STATION/POSITION TIME  TEMP    WIND        PRES    VSBY  WAVE
                       AIR SEA DIR/SP/G                  HT/PER
                 (UTC) (F)     (DEG/KT/KT) (MB)    (MI)  (FT/S)
BOSTON BUOY      0850   51 54  290/  6/  8 1015.1R         2/ 8
BUZZARDS BAY     0800   54     300/  6/  6 1016.3R
NANTUCKET SOUND  0850   53 54  300/ 10/ 12 1015.2R         1/ 3
MASS BAY-STELLWA 0804   50 53                N/A     3/4   3/ 9
ISLE OF SHOALS   0900   51     270/  2/  2 1015.0R
S OF BLOCK IS    0825      53                N/A           3/ 7
$$

......................KEY.........................
  SKY/WX - SKY CONDITION/PRESENT WEATHER
  TMP    - TEMPERATURE IN FAHRENHEIT
  DWPT   - DEWPOINT IN FAHRENHEIT
  RH     - RELATIVE HUMIDITY IN PERCENT
  WIND   - DIRECTION AND SPEED IN MPH
  PRES   - MEAN SEA LEVEL PRESSURE IN INCHES OF HG
  WCI    - WIND CHILL INDEX
  VSB    - VISIBILITY IN MILES
  HX     - HEAT INDEX
  TC     - TEMPERATURE IN CELSIUS
  VRB    - VARIABLE WIND DIRECTION
  N/A    - NOT AVAILABLE



USA.gov is the U.S. government's official web portal to all federal, state and local government web resources and services.